Location: Amon Carter Post Office
(32.8281°N, 97.0484°W)
Time: 15:21:15
(UTC+00:00)

Meteor 2-15 Rocket - Pass Details

Date: 13 July 2022
Orbit: 939 x 956 km, 82.5° (Epoch: 13 August)

Event Time Altitude Azimuth Distance (km) Brightness Sun altitude
Rises 10:35:54 0° 347° (NNW) 3,632 7.8 -10.6°
Reaches altitude 10° 10:38:28 10° 342° (NNW) 2,681 7.0 -10.1°
Maximum altitude 10:44:22 51° 268° (W) 1,179 4.7 -9.1°
Drops below altitude 10° 10:50:12 10° 194° (SSW) 2,655 6.4 -8.1°
Sets 10:52:44 0° 190° (S) 3,594 7.1 -7.6°
